{"data":{"norad_id":69402,"epoch":"2026-09-20T04:00:16.337664Z","epoch_age_seconds":63191,"freshness":"FRESH","line1":"1 69402U 26125B   26263.16685576  .00000041  00000+0  45270-4 0  9996","line2":"2 69402  88.9883 270.3651 0001986  97.6365 262.5012 13.51028750 14769","mean_motion":13.5102875,"eccentricity":0.0001986,"inclination_deg":88.9883,"raan_deg":270.3651,"arg_perigee_deg":97.6365,"mean_anomaly_deg":262.5012,"bstar":4.527e-5,"rev_number":1476,"period_min":106.58544461026,"perigee_km":1066.9970430286,"apogee_km":1069.9548376885,"semimajor_km":7446.6129403586,"source":"CELESTRAK","updated_at":"2026-09-20T09:00:24.864645Z"}}